MTN7102 TJSJ-TAPA

Flight info

Callsign MTN7102
Flight time 1h 45m
Altitude 20000
Route SJU RTE2 COY G633 ANU
Aircraft C208/L-SDFGR/C

Departure

Time 2026-04-26 15:07
Airport Luis Munoz Marin International Airport (TJSJ)

Arrival

Time 2026-04-26 16:52
Airport V. C. Bird International Airport (TAPA)
Time Latitude Longitude Altitude Speed Heading
2026-04-26 14:48 18.43638 -65.99703 18 ft 0 kts 267°
2026-04-26 14:59 18.43637 -65.99703 18 ft 0 kts 272°
2026-04-26 15:02 18.43637 -65.99705 18 ft 4 kts 271°
2026-04-26 15:02 18.43630 -65.99785 12 ft 13 kts 262°
2026-04-26 15:03 18.43625 -65.99883 17 ft 14 kts 283°
2026-04-26 15:03 18.43690 -65.99957 17 ft 14 kts 331°
2026-04-26 15:03 18.43776 -66.00009 17 ft 14 kts 330°
2026-04-26 15:03 18.43863 -66.00055 17 ft 14 kts 336°
2026-04-26 15:04 18.43953 -66.00095 16 ft 14 kts 335°
2026-04-26 15:04 18.44041 -66.00136 16 ft 14 kts 339°
2026-04-26 15:04 18.44127 -66.00175 16 ft 14 kts 337°
2026-04-26 15:04 18.44208 -66.00222 16 ft 13 kts 333°
2026-04-26 15:05 18.44288 -66.00258 15 ft 11 kts 336°
2026-04-26 15:05 18.44311 -66.00269 15 ft 11 kts 337°
2026-04-26 15:05 18.44379 -66.00252 15 ft 0 kts 67°
2026-04-26 15:06 18.44382 -66.00243 15 ft 14 kts 66°
2026-04-26 15:06 18.44459 -66.00058 16 ft 66 kts 64°
2026-04-26 15:06 18.44705 -65.99462 62 ft 102 kts 65°
2026-04-26 15:07 18.44898 -65.97983 569 ft 103 kts 112°
2026-04-26 15:07 18.44833 -65.97314 1008 ft 84 kts 91°
2026-04-26 15:07 18.44885 -65.96722 1384 ft 80 kts 90°
2026-04-26 15:08 18.44929 -65.96203 1794 ft 70 kts 91°
2026-04-26 15:08 18.44974 -65.95671 2114 ft 78 kts 83°
2026-04-26 15:08 18.44959 -65.95048 2668 ft 104 kts 102°
2026-04-26 15:08 18.45000 -65.94228 3102 ft 108 kts 91°
2026-04-26 15:09 18.45015 -65.93483 3559 ft 98 kts 91°
2026-04-26 15:09 18.45055 -65.92777 3976 ft 95 kts 90°
2026-04-26 15:09 18.45097 -65.92087 4394 ft 94 kts 90°
2026-04-26 15:09 18.45140 -65.91403 4805 ft 93 kts 90°
2026-04-26 15:10 18.45183 -65.90724 5178 ft 93 kts 90°
2026-04-26 15:10 18.45199 -65.90277 5484 ft 93 kts 93°
2026-04-26 15:10 18.45276 -65.89370 6045 ft 93 kts 92°
2026-04-26 15:10 18.45319 -65.88681 6440 ft 95 kts 89°
2026-04-26 15:11 18.45361 -65.87983 6811 ft 96 kts 89°
2026-04-26 15:11 18.45408 -65.87274 7168 ft 98 kts 90°
2026-04-26 15:11 18.45456 -65.86558 7538 ft 98 kts 89°
2026-04-26 15:11 18.45503 -65.85846 7900 ft 99 kts 88°
2026-04-26 15:12 18.45549 -65.85118 8250 ft 100 kts 88°
2026-04-26 15:12 18.45599 -65.84383 8612 ft 101 kts 88°
2026-04-26 15:12 18.45649 -65.83640 8965 ft 102 kts 87°
2026-04-26 15:12 18.45697 -65.82890 9323 ft 103 kts 87°
2026-04-26 15:13 18.45746 -65.82136 9681 ft 104 kts 87°
2026-04-26 15:13 18.45798 -65.81377 10017 ft 104 kts 87°
2026-04-26 15:13 18.45847 -65.80610 10333 ft 106 kts 86°
2026-04-26 15:13 18.45897 -65.79837 10646 ft 106 kts 88°
2026-04-26 15:14 18.45949 -65.79056 10959 ft 107 kts 88°
2026-04-26 15:14 18.46001 -65.78273 11270 ft 108 kts 88°
2026-04-26 15:14 18.46051 -65.77484 11581 ft 108 kts 88°
2026-04-26 15:14 18.46104 -65.76692 11886 ft 109 kts 89°
2026-04-26 15:15 18.46157 -65.75894 12197 ft 110 kts 89°
2026-04-26 15:15 18.46208 -65.75091 12503 ft 110 kts 89°
2026-04-26 15:15 18.46261 -65.74285 12810 ft 111 kts 90°
2026-04-26 15:15 18.46316 -65.73475 13112 ft 111 kts 90°
2026-04-26 15:16 18.46367 -65.72660 13411 ft 112 kts 90°
2026-04-26 15:16 18.46421 -65.71842 13704 ft 112 kts 91°
2026-04-26 15:16 18.46476 -65.71020 13969 ft 113 kts 91°
2026-04-26 15:16 18.46528 -65.70197 14217 ft 113 kts 90°
2026-04-26 15:17 18.46582 -65.69371 14464 ft 113 kts 91°
2026-04-26 15:17 18.46619 -65.68823 14629 ft 114 kts 91°
2026-04-26 15:17 18.46690 -65.67710 14953 ft 114 kts 91°
2026-04-26 15:17 18.46743 -65.66879 15196 ft 114 kts 92°
2026-04-26 15:18 18.46799 -65.66046 15433 ft 114 kts 92°
2026-04-26 15:18 18.46853 -65.65213 15665 ft 114 kts 91°
2026-04-26 15:18 18.46906 -65.64376 15893 ft 115 kts 92°
2026-04-26 15:18 18.46962 -65.63539 16121 ft 115 kts 92°
2026-04-26 15:19 18.47019 -65.62691 16380 ft 116 kts 92°
2026-04-26 15:19 18.47069 -65.61829 16612 ft 124 kts 92°
2026-04-26 15:19 18.47124 -65.60897 16855 ft 131 kts 92°
2026-04-26 15:19 18.47185 -65.59913 17096 ft 138 kts 92°
2026-04-26 15:20 18.47252 -65.58877 17338 ft 145 kts 91°
2026-04-26 15:20 18.47323 -65.57793 17568 ft 151 kts 91°
2026-04-26 15:20 18.47396 -65.56670 17796 ft 156 kts 91°
2026-04-26 15:20 18.47472 -65.55514 18017 ft 160 kts 91°
2026-04-26 15:21 18.47548 -65.54332 18236 ft 163 kts 91°
2026-04-26 15:21 18.47625 -65.53137 18425 ft 163 kts 91°
2026-04-26 15:21 18.47702 -65.51954 18594 ft 161 kts 91°
2026-04-26 15:21 18.47779 -65.50784 18768 ft 160 kts 92°
2026-04-26 15:22 18.47854 -65.49618 18941 ft 159 kts 92°
2026-04-26 15:22 18.47928 -65.48463 19113 ft 158 kts 92°
2026-04-26 15:22 18.48002 -65.47316 19289 ft 157 kts 92°
2026-04-26 15:22 18.48075 -65.46176 19465 ft 156 kts 92°
2026-04-26 15:23 18.48148 -65.45042 19644 ft 155 kts 92°
2026-04-26 15:23 18.48219 -65.43917 19823 ft 154 kts 92°
2026-04-26 15:23 18.48291 -65.42797 19993 ft 153 kts 92°
2026-04-26 15:23 18.48360 -65.41632 20021 ft 165 kts 92°
2026-04-26 15:24 18.48436 -65.40392 20026 ft 174 kts 91°
2026-04-26 15:24 18.48519 -65.39096 20023 ft 180 kts 91°
2026-04-26 15:24 18.48604 -65.37765 20022 ft 184 kts 91°
2026-04-26 15:24 18.48691 -65.36410 20019 ft 187 kts 91°
2026-04-26 15:25 18.48779 -65.35039 20020 ft 188 kts 91°
2026-04-26 15:25 18.48836 -65.34126 20020 ft 189 kts 91°
2026-04-26 15:25 18.48954 -65.32270 20021 ft 190 kts 91°
2026-04-26 15:25 18.49041 -65.30898 20019 ft 191 kts 91°
2026-04-26 15:26 18.49129 -65.29503 20020 ft 191 kts 91°
2026-04-26 15:26 18.49139 -65.28099 20019 ft 187 kts 107°
2026-04-26 15:26 18.48710 -65.26867 20025 ft 179 kts 128°
2026-04-26 15:26 18.48090 -65.25732 20025 ft 179 kts 128°
2026-04-26 15:27 18.47476 -65.24582 20027 ft 180 kts 128°
2026-04-26 15:27 18.46860 -65.23434 20026 ft 180 kts 128°
2026-04-26 15:27 18.46242 -65.22282 20026 ft 181 kts 128°
2026-04-26 15:27 18.45623 -65.21132 20029 ft 181 kts 128°
2026-04-26 15:28 18.45004 -65.19978 20025 ft 181 kts 128°
2026-04-26 15:28 18.44384 -65.18826 20029 ft 181 kts 128°
2026-04-26 15:28 18.43764 -65.17672 20025 ft 181 kts 128°
2026-04-26 15:28 18.43144 -65.16519 20028 ft 181 kts 128°
2026-04-26 15:29 18.42523 -65.15365 20027 ft 181 kts 128°
2026-04-26 15:29 18.41905 -65.14214 20027 ft 181 kts 128°
2026-04-26 15:29 18.40664 -65.11909 20031 ft 181 kts 128°
2026-04-26 15:30 18.39423 -65.09603 20031 ft 181 kts 128°
2026-04-26 15:30 18.38803 -65.08452 20031 ft 181 kts 128°
2026-04-26 15:30 18.38183 -65.07299 20032 ft 181 kts 128°
2026-04-26 15:31 18.37563 -65.06148 20032 ft 181 kts 128°
2026-04-26 15:31 18.36330 -65.03860 20032 ft 181 kts 128°
2026-04-26 15:31 18.35649 -65.02767 20033 ft 175 kts 142°
2026-04-26 15:32 18.34021 -65.01651 20036 ft 165 kts 164°
2026-04-26 15:32 18.32663 -65.00939 20038 ft 164 kts 163°
2026-04-26 15:32 18.31640 -65.00402 20037 ft 164 kts 163°
2026-04-26 15:33 18.30617 -64.99867 20037 ft 164 kts 163°
2026-04-26 15:33 18.29596 -64.99333 20035 ft 164 kts 163°
2026-04-26 15:33 18.28573 -64.98798 20037 ft 164 kts 163°
2026-04-26 15:33 18.27552 -64.98264 20036 ft 164 kts 163°
2026-04-26 15:34 18.26532 -64.97731 20035 ft 164 kts 163°
2026-04-26 15:34 18.25511 -64.97197 20034 ft 164 kts 163°
2026-04-26 15:34 18.24489 -64.96663 20034 ft 164 kts 163°
2026-04-26 15:34 18.23467 -64.96129 20036 ft 164 kts 163°
2026-04-26 15:35 18.22446 -64.95596 20033 ft 164 kts 163°
2026-04-26 15:35 18.21426 -64.95063 20033 ft 164 kts 163°
2026-04-26 15:35 18.20404 -64.94529 20030 ft 164 kts 163°
2026-04-26 15:35 18.19384 -64.93996 20029 ft 164 kts 163°
2026-04-26 15:36 18.18362 -64.93463 20029 ft 164 kts 163°
2026-04-26 15:36 18.17342 -64.92930 20027 ft 164 kts 163°
2026-04-26 15:36 18.16319 -64.92396 20026 ft 164 kts 163°
2026-04-26 15:36 18.15309 -64.91869 20026 ft 164 kts 163°
2026-04-26 15:37 18.14273 -64.91328 20027 ft 164 kts 163°
2026-04-26 15:37 18.13265 -64.90802 20026 ft 164 kts 163°
2026-04-26 15:37 18.12228 -64.90261 20021 ft 164 kts 163°
2026-04-26 15:37 18.11221 -64.89736 20019 ft 164 kts 163°
2026-04-26 15:38 18.10199 -64.89203 20021 ft 164 kts 163°
2026-04-26 15:38 18.09178 -64.88670 20020 ft 164 kts 163°
2026-04-26 15:38 18.08155 -64.88137 20019 ft 164 kts 163°
2026-04-26 15:38 18.07134 -64.87605 20019 ft 164 kts 163°
2026-04-26 15:39 18.06109 -64.87071 20019 ft 164 kts 163°
2026-04-26 15:39 18.05086 -64.86537 20018 ft 164 kts 163°
2026-04-26 15:39 18.04062 -64.86004 20018 ft 164 kts 163°
2026-04-26 15:39 18.03382 -64.85650 20017 ft 164 kts 163°
2026-04-26 15:40 18.02012 -64.84936 20020 ft 164 kts 163°
2026-04-26 15:40 18.00988 -64.84402 20021 ft 164 kts 163°
2026-04-26 15:40 17.99963 -64.83868 20023 ft 164 kts 163°
2026-04-26 15:40 17.98939 -64.83335 20025 ft 164 kts 163°
2026-04-26 15:41 17.97915 -64.82802 20025 ft 164 kts 163°
2026-04-26 15:41 17.96890 -64.82268 20025 ft 164 kts 163°
2026-04-26 15:41 17.95866 -64.81736 20027 ft 164 kts 163°
2026-04-26 15:41 17.94841 -64.81202 20028 ft 164 kts 163°
2026-04-26 15:42 17.93818 -64.80669 20026 ft 164 kts 163°
2026-04-26 15:42 17.92794 -64.80136 20030 ft 164 kts 163°
2026-04-26 15:42 17.91769 -64.79603 20029 ft 164 kts 163°
2026-04-26 15:42 17.90744 -64.79069 20031 ft 164 kts 163°
2026-04-26 15:43 17.89720 -64.78537 20034 ft 164 kts 163°
2026-04-26 15:43 17.88694 -64.78004 20031 ft 164 kts 163°
2026-04-26 15:43 17.86646 -64.76938 20033 ft 164 kts 163°
2026-04-26 15:44 17.85620 -64.76406 20033 ft 164 kts 163°
2026-04-26 15:44 17.83568 -64.75339 20037 ft 165 kts 163°
2026-04-26 15:44 17.82557 -64.74813 20039 ft 164 kts 163°
2026-04-26 15:45 17.80505 -64.73747 20037 ft 165 kts 163°
2026-04-26 15:45 17.79481 -64.73215 20038 ft 165 kts 162°
2026-04-26 15:46 17.77428 -64.72149 20039 ft 165 kts 163°
2026-04-26 15:46 17.76401 -64.71615 20038 ft 165 kts 163°
2026-04-26 15:46 17.75375 -64.71082 20037 ft 165 kts 162°
2026-04-26 15:46 17.74682 -64.70715 20036 ft 166 kts 160°
2026-04-26 15:47 17.73541 -64.69573 20034 ft 179 kts 131°
2026-04-26 15:47 17.72774 -64.67017 20041 ft 187 kts 109°
2026-04-26 15:47 17.72481 -64.65690 20040 ft 187 kts 109°
2026-04-26 15:48 17.72188 -64.64360 20039 ft 187 kts 109°
2026-04-26 15:48 17.71895 -64.63030 20039 ft 187 kts 109°
2026-04-26 15:48 17.71602 -64.61697 20036 ft 187 kts 109°
2026-04-26 15:48 17.71310 -64.60370 20033 ft 187 kts 110°
2026-04-26 15:49 17.71018 -64.59039 20033 ft 187 kts 109°
2026-04-26 15:49 17.70725 -64.57710 20033 ft 187 kts 109°
2026-04-26 15:49 17.70432 -64.56379 20030 ft 187 kts 109°
2026-04-26 15:49 17.70139 -64.55050 20029 ft 187 kts 109°
2026-04-26 15:50 17.69846 -64.53722 20028 ft 187 kts 109°
2026-04-26 15:50 17.69554 -64.52395 20026 ft 187 kts 109°
2026-04-26 15:50 17.69260 -64.51065 20023 ft 187 kts 109°
2026-04-26 15:50 17.68967 -64.49737 20023 ft 187 kts 109°
2026-04-26 15:51 17.68674 -64.48408 20021 ft 187 kts 109°
2026-04-26 15:51 17.68384 -64.47096 20018 ft 187 kts 109°
2026-04-26 15:51 17.68091 -64.45767 20019 ft 187 kts 109°
2026-04-26 15:51 17.67798 -64.44438 20017 ft 187 kts 109°
2026-04-26 15:52 17.67504 -64.43108 20017 ft 187 kts 109°
2026-04-26 15:52 17.67210 -64.41778 20014 ft 187 kts 109°
2026-04-26 15:52 17.66915 -64.40446 20016 ft 187 kts 109°
2026-04-26 15:52 17.66720 -64.39565 20015 ft 187 kts 109°
2026-04-26 15:53 17.66327 -64.37784 20016 ft 187 kts 109°
2026-04-26 15:53 17.66032 -64.36452 20016 ft 188 kts 109°
2026-04-26 15:53 17.65737 -64.35122 20017 ft 188 kts 109°
2026-04-26 15:53 17.65443 -64.33790 20016 ft 188 kts 109°
2026-04-26 15:54 17.65148 -64.32459 20014 ft 187 kts 109°
2026-04-26 15:54 17.64853 -64.31126 20016 ft 187 kts 109°
2026-04-26 15:54 17.64558 -64.29794 20012 ft 187 kts 109°
2026-04-26 15:54 17.64263 -64.28463 20012 ft 188 kts 109°
2026-04-26 15:55 17.63967 -64.27130 20012 ft 188 kts 109°
2026-04-26 15:55 17.63672 -64.25799 20013 ft 188 kts 109°
2026-04-26 15:55 17.63376 -64.24467 20010 ft 188 kts 109°
2026-04-26 15:55 17.63080 -64.23133 20013 ft 188 kts 109°
2026-04-26 15:56 17.62785 -64.21802 20012 ft 188 kts 109°
2026-04-26 15:56 17.62489 -64.20469 20010 ft 188 kts 109°
2026-04-26 15:56 17.62192 -64.19136 20011 ft 188 kts 109°
2026-04-26 15:56 17.61896 -64.17803 20012 ft 188 kts 109°
2026-04-26 15:57 17.61600 -64.16472 20010 ft 188 kts 109°
2026-04-26 15:57 17.61304 -64.15138 20011 ft 188 kts 109°
2026-04-26 15:57 17.61008 -64.13806 20012 ft 188 kts 109°
2026-04-26 15:57 17.60811 -64.12924 20010 ft 188 kts 109°
2026-04-26 15:58 17.60418 -64.11159 20009 ft 188 kts 109°
2026-04-26 15:58 17.60122 -64.09829 20010 ft 188 kts 109°
2026-04-26 15:58 17.59825 -64.08495 20011 ft 188 kts 109°
2026-04-26 15:58 17.59528 -64.07163 20010 ft 187 kts 109°
2026-04-26 15:59 17.59233 -64.05841 20006 ft 186 kts 109°
2026-04-26 15:59 17.58940 -64.04526 20004 ft 185 kts 109°
2026-04-26 15:59 17.58649 -64.03217 20002 ft 184 kts 109°
2026-04-26 15:59 17.58452 -64.02336 20008 ft 184 kts 109°
2026-04-26 16:00 17.58165 -64.01050 20004 ft 183 kts 109°
2026-04-26 16:00 17.57875 -63.99751 20006 ft 183 kts 109°
2026-04-26 16:00 17.57585 -63.98452 20005 ft 183 kts 109°
2026-04-26 16:00 17.57295 -63.97155 20002 ft 183 kts 109°
2026-04-26 16:01 17.57006 -63.95859 20003 ft 183 kts 109°
2026-04-26 16:01 17.56715 -63.94561 20007 ft 183 kts 109°
2026-04-26 16:01 17.56426 -63.93265 20007 ft 183 kts 109°
2026-04-26 16:01 17.56136 -63.91970 20008 ft 183 kts 109°
2026-04-26 16:02 17.55845 -63.90671 20009 ft 183 kts 109°
2026-04-26 16:02 17.55555 -63.89374 20008 ft 183 kts 109°
2026-04-26 16:02 17.55265 -63.88079 20008 ft 183 kts 109°
2026-04-26 16:02 17.55073 -63.87220 20006 ft 183 kts 109°
2026-04-26 16:03 17.54684 -63.85485 20005 ft 183 kts 109°
2026-04-26 16:03 17.54394 -63.84189 20003 ft 183 kts 109°
2026-04-26 16:03 17.54104 -63.82895 20007 ft 183 kts 109°
2026-04-26 16:03 17.53813 -63.81598 20007 ft 183 kts 109°
2026-04-26 16:04 17.53522 -63.80304 19999 ft 182 kts 109°
2026-04-26 16:04 17.53232 -63.79009 20003 ft 182 kts 109°
2026-04-26 16:04 17.52941 -63.77715 20003 ft 183 kts 109°
2026-04-26 16:04 17.52651 -63.76421 20003 ft 183 kts 109°
2026-04-26 16:05 17.52360 -63.75125 20007 ft 183 kts 109°
2026-04-26 16:05 17.52069 -63.73831 20010 ft 182 kts 109°
2026-04-26 16:05 17.51778 -63.72537 20007 ft 182 kts 109°
2026-04-26 16:05 17.51487 -63.71243 20007 ft 182 kts 109°
2026-04-26 16:06 17.51197 -63.69954 20007 ft 182 kts 109°
2026-04-26 16:06 17.50907 -63.68662 20007 ft 182 kts 109°
2026-04-26 16:06 17.50615 -63.67368 20005 ft 182 kts 109°
2026-04-26 16:06 17.50325 -63.66077 20006 ft 182 kts 109°
2026-04-26 16:07 17.50034 -63.64785 20005 ft 182 kts 109°
2026-04-26 16:07 17.49742 -63.63491 20004 ft 182 kts 109°
2026-04-26 16:07 17.49452 -63.62201 20004 ft 182 kts 109°
2026-04-26 16:07 17.49161 -63.60910 20006 ft 182 kts 109°
2026-04-26 16:08 17.48869 -63.59617 20007 ft 182 kts 109°
2026-04-26 16:08 17.48578 -63.58327 20005 ft 182 kts 109°
2026-04-26 16:08 17.48287 -63.57036 20006 ft 182 kts 109°
2026-04-26 16:08 17.47996 -63.55746 20006 ft 182 kts 109°
2026-04-26 16:09 17.47705 -63.54455 20006 ft 182 kts 109°
2026-04-26 16:09 17.47413 -63.53166 20005 ft 182 kts 109°
2026-04-26 16:09 17.47122 -63.51878 20004 ft 182 kts 109°
2026-04-26 16:09 17.46831 -63.50589 20003 ft 182 kts 109°
2026-04-26 16:10 17.46540 -63.49303 20006 ft 182 kts 109°
2026-04-26 16:10 17.46249 -63.48015 20005 ft 182 kts 109°
2026-04-26 16:10 17.45958 -63.46729 20005 ft 182 kts 109°
2026-04-26 16:10 17.45667 -63.45443 20004 ft 182 kts 109°
2026-04-26 16:11 17.45376 -63.44156 20006 ft 181 kts 109°
2026-04-26 16:11 17.45085 -63.42871 20004 ft 181 kts 109°
2026-04-26 16:11 17.44794 -63.41586 20006 ft 181 kts 109°
2026-04-26 16:11 17.44503 -63.40300 20005 ft 181 kts 109°
2026-04-26 16:12 17.44212 -63.39016 20005 ft 181 kts 109°
2026-04-26 16:12 17.43921 -63.37732 20005 ft 181 kts 109°
2026-04-26 16:12 17.43338 -63.35163 20004 ft 181 kts 109°
2026-04-26 16:13 17.43047 -63.33881 20004 ft 181 kts 109°
2026-04-26 16:13 17.42756 -63.32596 20005 ft 181 kts 109°
2026-04-26 16:13 17.42464 -63.31313 20005 ft 181 kts 109°
2026-04-26 16:13 17.42173 -63.30030 20007 ft 181 kts 109°
2026-04-26 16:14 17.41882 -63.28748 20007 ft 181 kts 109°
2026-04-26 16:14 17.41591 -63.27467 20008 ft 181 kts 109°
2026-04-26 16:14 17.41008 -63.24904 20007 ft 181 kts 109°
2026-04-26 16:15 17.40716 -63.23622 20010 ft 181 kts 109°
2026-04-26 16:15 17.40424 -63.22339 20008 ft 181 kts 109°
2026-04-26 16:15 17.40133 -63.21058 20013 ft 181 kts 109°
2026-04-26 16:16 17.39550 -63.18499 20011 ft 181 kts 109°
2026-04-26 16:16 17.39259 -63.17221 20011 ft 181 kts 109°
2026-04-26 16:16 17.38967 -63.15941 20011 ft 181 kts 109°
2026-04-26 16:16 17.38676 -63.14662 20012 ft 181 kts 109°
2026-04-26 16:17 17.38384 -63.13383 20010 ft 181 kts 109°
2026-04-26 16:17 17.38092 -63.12105 20012 ft 180 kts 109°
2026-04-26 16:17 17.37801 -63.10828 20012 ft 180 kts 109°
2026-04-26 16:17 17.37509 -63.09550 20011 ft 180 kts 109°
2026-04-26 16:18 17.37218 -63.08275 20011 ft 180 kts 109°
2026-04-26 16:18 17.36635 -63.05723 20012 ft 180 kts 109°
2026-04-26 16:19 17.36053 -63.03174 20012 ft 180 kts 109°
2026-04-26 16:19 17.35761 -63.01899 20012 ft 180 kts 109°
2026-04-26 16:19 17.35276 -62.99780 20012 ft 180 kts 109°
2026-04-26 16:20 17.34891 -62.98076 20011 ft 180 kts 109°
2026-04-26 16:20 17.34314 -62.95528 20011 ft 180 kts 109°
2026-04-26 16:20 17.34025 -62.94255 20009 ft 180 kts 109°
2026-04-26 16:21 17.33736 -62.92982 20010 ft 180 kts 109°
2026-04-26 16:21 17.33447 -62.91709 20010 ft 180 kts 109°
2026-04-26 16:21 17.33159 -62.90438 20008 ft 180 kts 109°
2026-04-26 16:21 17.32870 -62.89165 20007 ft 180 kts 109°
2026-04-26 16:22 17.32581 -62.87894 20012 ft 180 kts 109°
2026-04-26 16:22 17.32292 -62.86621 20010 ft 180 kts 109°
2026-04-26 16:22 17.32006 -62.85365 19897 ft 175 kts 110°
2026-04-26 16:22 17.31715 -62.84111 19544 ft 179 kts 109°
2026-04-26 16:23 17.31432 -62.82854 19259 ft 177 kts 109°
2026-04-26 16:23 17.31150 -62.81604 18969 ft 176 kts 109°
2026-04-26 16:23 17.30868 -62.80364 18687 ft 175 kts 109°
2026-04-26 16:23 17.30588 -62.79131 18414 ft 174 kts 109°
2026-04-26 16:24 17.30309 -62.77905 18127 ft 173 kts 109°
2026-04-26 16:24 17.30027 -62.76689 17841 ft 171 kts 109°
2026-04-26 16:24 17.29753 -62.75480 17556 ft 170 kts 108°
2026-04-26 16:24 17.29475 -62.74283 17270 ft 167 kts 112°
2026-04-26 16:25 17.29090 -62.73143 16857 ft 167 kts 115°
2026-04-26 16:25 17.28711 -62.72002 16465 ft 165 kts 114°
2026-04-26 16:25 17.28340 -62.70874 16092 ft 163 kts 114°
2026-04-26 16:25 17.27970 -62.69753 15715 ft 162 kts 114°
2026-04-26 16:26 17.27602 -62.68642 15344 ft 161 kts 114°
2026-04-26 16:26 17.27360 -62.67912 15118 ft 160 kts 114°
2026-04-26 16:26 17.26875 -62.66450 14649 ft 158 kts 113°
2026-04-26 16:26 17.26516 -62.65368 14310 ft 157 kts 113°
2026-04-26 16:27 17.26159 -62.64291 13990 ft 156 kts 113°
2026-04-26 16:27 17.25805 -62.63225 13624 ft 155 kts 113°
2026-04-26 16:27 17.25454 -62.62163 13239 ft 154 kts 113°
2026-04-26 16:27 17.25105 -62.61111 12858 ft 152 kts 113°
2026-04-26 16:28 17.24759 -62.60070 12470 ft 151 kts 113°
2026-04-26 16:28 17.24416 -62.59036 12127 ft 151 kts 113°
2026-04-26 16:28 17.24075 -62.58007 11839 ft 149 kts 113°
2026-04-26 16:28 17.23735 -62.56982 11596 ft 148 kts 113°
2026-04-26 16:29 17.23398 -62.55967 11353 ft 147 kts 113°
2026-04-26 16:29 17.23062 -62.54958 11129 ft 146 kts 113°
2026-04-26 16:29 17.22729 -62.53955 10893 ft 146 kts 113°
2026-04-26 16:29 17.22396 -62.52955 10657 ft 145 kts 113°
2026-04-26 16:30 17.22065 -62.51958 10430 ft 145 kts 113°
2026-04-26 16:30 17.21734 -62.50964 10228 ft 145 kts 113°
2026-04-26 16:30 17.21408 -62.49978 10075 ft 143 kts 113°
2026-04-26 16:30 17.21082 -62.49000 9921 ft 142 kts 113°
2026-04-26 16:31 17.20757 -62.48025 9748 ft 142 kts 114°
2026-04-26 16:31 17.20438 -62.47065 9579 ft 141 kts 114°
2026-04-26 16:31 17.20111 -62.46083 9449 ft 141 kts 114°
2026-04-26 16:31 17.19796 -62.45130 9392 ft 140 kts 114°
2026-04-26 16:32 17.19474 -62.44165 9320 ft 140 kts 114°
2026-04-26 16:32 17.19258 -62.43515 9272 ft 140 kts 114°
2026-04-26 16:32 17.18835 -62.42245 9182 ft 139 kts 114°
2026-04-26 16:32 17.18516 -62.41291 9105 ft 139 kts 114°
2026-04-26 16:33 17.18198 -62.40335 9021 ft 139 kts 113°
2026-04-26 16:33 17.17879 -62.39379 8953 ft 139 kts 114°
2026-04-26 16:33 17.17562 -62.38426 8878 ft 138 kts 113°
2026-04-26 16:33 17.17245 -62.37476 8801 ft 138 kts 114°
2026-04-26 16:34 17.16929 -62.36528 8746 ft 138 kts 114°
2026-04-26 16:34 17.16615 -62.35582 8677 ft 138 kts 114°
2026-04-26 16:34 17.16300 -62.34639 8601 ft 137 kts 114°
2026-04-26 16:34 17.15985 -62.33698 8524 ft 137 kts 114°
2026-04-26 16:35 17.15671 -62.32756 8465 ft 137 kts 114°
2026-04-26 16:35 17.15359 -62.31818 8403 ft 136 kts 113°
2026-04-26 16:35 17.15046 -62.30884 8337 ft 136 kts 113°
2026-04-26 16:35 17.14734 -62.29949 8271 ft 136 kts 113°
2026-04-26 16:36 17.14423 -62.29014 8209 ft 136 kts 115°
2026-04-26 16:36 17.14115 -62.28093 8146 ft 135 kts 114°
2026-04-26 16:36 17.13805 -62.27165 8092 ft 135 kts 114°
2026-04-26 16:36 17.13495 -62.26234 8024 ft 136 kts 115°
2026-04-26 16:37 17.13184 -62.25303 7972 ft 134 kts 114°
2026-04-26 16:37 17.12876 -62.24390 7795 ft 134 kts 114°
2026-04-26 16:37 17.12569 -62.23471 7623 ft 133 kts 114°
2026-04-26 16:37 17.12367 -62.22866 7505 ft 133 kts 115°
2026-04-26 16:38 17.11960 -62.21647 7273 ft 132 kts 114°
2026-04-26 16:38 17.11661 -62.20754 7116 ft 132 kts 115°
2026-04-26 16:38 17.11355 -62.19839 6943 ft 131 kts 114°
2026-04-26 16:38 17.11061 -62.18957 6802 ft 130 kts 114°
2026-04-26 16:39 17.10765 -62.18067 6660 ft 129 kts 115°
2026-04-26 16:39 17.10468 -62.17182 6513 ft 129 kts 114°
2026-04-26 16:39 17.10171 -62.16296 6363 ft 129 kts 114°
2026-04-26 16:39 17.09874 -62.15409 6206 ft 129 kts 114°
2026-04-26 16:40 17.09580 -62.14532 6049 ft 127 kts 114°
2026-04-26 16:40 17.09288 -62.13662 5828 ft 127 kts 114°
2026-04-26 16:40 17.08999 -62.12795 5601 ft 126 kts 114°
2026-04-26 16:40 17.08709 -62.11930 5381 ft 126 kts 115°
2026-04-26 16:41 17.08421 -62.11072 5184 ft 125 kts 114°
2026-04-26 16:41 17.08136 -62.10219 5027 ft 122 kts 114°
2026-04-26 16:41 17.07875 -62.09429 5007 ft 109 kts 114°
2026-04-26 16:41 17.07627 -62.08690 4874 ft 108 kts 115°
2026-04-26 16:42 17.07380 -62.07956 4728 ft 107 kts 115°
2026-04-26 16:42 17.07138 -62.07236 4530 ft 104 kts 115°
2026-04-26 16:42 17.06895 -62.06517 4283 ft 105 kts 114°
2026-04-26 16:42 17.06657 -62.05804 4063 ft 104 kts 115°
2026-04-26 16:43 17.06419 -62.05094 3832 ft 104 kts 114°
2026-04-26 16:43 17.06182 -62.04387 3622 ft 103 kts 114°
2026-04-26 16:43 17.06026 -62.03920 3477 ft 103 kts 114°
2026-04-26 16:43 17.05713 -62.02985 3176 ft 100 kts 115°
2026-04-26 16:44 17.05561 -62.02533 3026 ft 99 kts 114°
2026-04-26 16:44 17.05332 -62.01851 2800 ft 99 kts 114°
2026-04-26 16:44 17.05106 -62.01178 2587 ft 98 kts 114°
2026-04-26 16:44 17.04891 -62.00527 2532 ft 99 kts 111°
2026-04-26 16:45 17.04627 -61.99730 2564 ft 130 kts 112°
2026-04-26 16:45 17.04188 -61.98451 2554 ft 148 kts 112°
2026-04-26 16:45 17.03951 -61.97753 2533 ft 154 kts 111°
2026-04-26 16:45 17.03774 -61.96676 2517 ft 141 kts 92°
2026-04-26 16:46 17.03961 -61.95722 2505 ft 131 kts 75°
2026-04-26 16:46 17.04370 -61.94957 2479 ft 110 kts 63°
2026-04-26 16:46 17.04759 -61.94310 2482 ft 102 kts 65°
2026-04-26 16:46 17.05142 -61.93666 2486 ft 107 kts 66°
2026-04-26 16:47 17.05536 -61.92999 2490 ft 108 kts 64°
2026-04-26 16:47 17.05925 -61.92343 2494 ft 107 kts 64°
2026-04-26 16:47 17.06323 -61.91676 2494 ft 108 kts 66°
2026-04-26 16:47 17.06717 -61.91006 2497 ft 108 kts 65°
2026-04-26 16:48 17.07113 -61.90340 2499 ft 108 kts 65°
2026-04-26 16:48 17.07506 -61.89677 2501 ft 107 kts 66°
2026-04-26 16:48 17.07897 -61.89017 2502 ft 107 kts 65°
2026-04-26 16:48 17.08383 -61.88361 2398 ft 117 kts 56°
2026-04-26 16:49 17.08896 -61.87720 2164 ft 116 kts 59°
2026-04-26 16:49 17.09343 -61.87072 1867 ft 107 kts 64°
2026-04-26 16:49 17.09705 -61.86413 1543 ft 105 kts 71°
2026-04-26 16:49 17.09998 -61.85685 1243 ft 112 kts 72°
2026-04-26 16:50 17.10361 -61.84971 1027 ft 111 kts 65°
2026-04-26 16:50 17.10726 -61.84288 865 ft 105 kts 64°
2026-04-26 16:50 17.11107 -61.83669 748 ft 98 kts 66°
2026-04-26 16:50 17.11463 -61.83063 640 ft 96 kts 67°
2026-04-26 16:51 17.11747 -61.82464 449 ft 89 kts 62°
2026-04-26 16:51 17.12076 -61.81948 390 ft 84 kts 68°
2026-04-26 16:51 17.12411 -61.81409 301 ft 92 kts 64°
2026-04-26 16:51 17.12738 -61.80825 184 ft 93 kts 64°
2026-04-26 16:52 17.13084 -61.80280 85 ft 80 kts 69°
2026-04-26 16:52 17.13257 -61.79971 58 ft 68 kts 69°
2026-04-26 16:52 17.13428 -61.79667 56 ft 50 kts 59°
2026-04-26 16:52 17.13625 -61.79349 51 ft 35 kts 59°
2026-04-26 16:53 17.13718 -61.79182 47 ft 23 kts 55°
2026-04-26 16:53 17.13811 -61.79104 45 ft 15 kts 352°
2026-04-26 16:53 17.13906 -61.79152 46 ft 14 kts 333°
2026-04-26 16:53 17.13967 -61.79202 46 ft 11 kts 272°
2026-04-26 16:54 17.13954 -61.79233 47 ft 0 kts 233°